Weather History for Gunnison, CO

Change the Weather History Date:

Tuesday, October 23, 2012

  Actual Average Record
Temperature  
Mean Temperature 44 °F -  
Max Temperature 62 °F 52 °F 71 °F (2003)
Min Temperature 26 °F 21 °F 6 °F (2008)
Degree Days  
Heating Degree Days 21    
Moisture  
Dew Point 18 °F    
Average Humidity 37    
Maximum Humidity 69    
Minimum Humidity 14    
Precipitation  
Precipitation 0.00 in - - ()
Sea Level Pressure  
Sea Level Pressure 30.00 in    
Wind  
Wind Speed 7 mph (West)    
Max Wind Speed 28 mph    
Max Gust Speed 36 mph    
Visibility 10 miles    
Events      
Averages and records for this station are not official NWS values.
T = Trace of Precipitation, MM = Missing Value Source: NWS Daily Summary

Daily Weather History Graph

Daily Weather History Graph

Search for Another Location

Airport:

Trip Planner

Search our weather history database for the weather conditions in past years. The results will help you decide how hot, cold, wet, or windy it might be!

Date:

Astronomy

Oct. 23, 2012 Rise Set
Actual Time 7:25 AM MDT 6:17 PM MDT
Civil Twilight 6:58 AM MDT 6:44 PM MDT
Nautical Twilight 6:27 AM MDT 7:15 PM MDT
Astronomical Twilight 5:56 AM MDT 7:46 PM MDT
Moon 2:59 PM MDT (10/23) 1:24 AM MDT (10/23)
Length of Visible Light 11h 46m
Length of Day
10h 52m
Waxing Gibbous, 67% of the Moon is Illuminated
Oct 23
Waxing Gibbous
Oct 29
Full
Nov 6
Last Quarter
Nov 13
New
Nov 20
First Quarter

Hourly Weather History & Observations

Time (MDT) Temp. Windchill Dew Point Humidity Pressure Visibility Wind Dir Wind Speed Gust Speed Precip Events Conditions
12:15 AM 33.8 °F 29.6 °F 19.4 °F 56% 30.05 in 10.0 mi North 4.6 mph - N/A   Clear
12:35 AM 33.8 °F 30.8 °F 19.4 °F 56% 30.05 in 10.0 mi North 3.5 mph - N/A   Clear
12:55 AM 33.8 °F - 19.4 °F 56% 30.05 in 10.0 mi North - - N/A   Clear
1:15 AM 32.0 °F - 19.4 °F 60% 30.05 in 10.0 mi Calm Calm - N/A   Clear
1:55 AM 32.0 °F - 19.4 °F 60% 30.05 in 10.0 mi Calm Calm - N/A   Clear
2:15 AM 28.4 °F - 17.6 °F 64% 30.05 in 10.0 mi Calm Calm - N/A   Clear
2:35 AM 28.4 °F 24.6 °F 19.4 °F 69% 30.05 in 10.0 mi ESE 3.5 mph - N/A   Clear
2:55 AM 28.4 °F 24.6 °F 17.6 °F 64% 30.05 in 10.0 mi NNW 3.5 mph - N/A   Clear
3:15 AM 28.4 °F - 19.4 °F 69% 30.04 in 10.0 mi Calm Calm - N/A   Clear
3:35 AM 28.4 °F - 17.6 °F 64% 30.04 in 10.0 mi Calm Calm - N/A   Clear
3:55 AM 28.4 °F - 17.6 °F 64% 30.04 in 10.0 mi Calm Calm - N/A   Scattered Clouds
4:15 AM 28.4 °F - 19.4 °F 69% 30.03 in 10.0 mi Calm Calm - N/A   Mostly Cloudy
4:35 AM 26.6 °F - 15.8 °F 64% 30.04 in 10.0 mi Calm Calm - N/A   Overcast
4:55 AM 28.4 °F 24.6 °F 19.4 °F 69% 30.03 in 10.0 mi North 3.5 mph - N/A   Mostly Cloudy
5:35 AM 28.4 °F - 19.4 °F 69% 30.03 in 10.0 mi Calm Calm - N/A   Overcast
6:15 AM 32.0 °F 28.7 °F 21.2 °F 64% 30.05 in 10.0 mi South 3.5 mph - N/A   Overcast
6:35 AM 32.0 °F 25.6 °F 19.4 °F 60% 30.03 in 10.0 mi North 6.9 mph - N/A   Overcast
6:55 AM 33.8 °F 26.4 °F 21.2 °F 60% 30.03 in 10.0 mi NNE 9.2 mph - N/A   Overcast
7:15 AM 33.8 °F - 21.2 °F 60% 30.03 in 10.0 mi Calm Calm - N/A   Overcast
7:35 AM 35.6 °F - 21.2 °F 56% 30.03 in 10.0 mi Calm Calm - N/A   Overcast
7:55 AM 35.6 °F - 21.2 °F 56% 30.04 in 10.0 mi Calm Calm - N/A   Overcast
8:15 AM 35.6 °F 32.8 °F 21.2 °F 56% 30.03 in 10.0 mi NNW 3.5 mph - N/A   Overcast
8:35 AM 35.6 °F - 24.8 °F 65% 30.04 in 10.0 mi Calm Calm - N/A   Mostly Cloudy
8:55 AM 37.4 °F 33.8 °F 23.0 °F 56% 30.04 in 10.0 mi SSE 4.6 mph - N/A   Mostly Cloudy
9:55 AM 44.6 °F 42.2 °F 26.6 °F 49% 30.02 in 10.0 mi SW 4.6 mph - N/A   Partly Cloudy
10:15 AM 50.0 °F - 26.6 °F 40% 30.01 in 10.0 mi WSW 3.5 mph - N/A   Clear
10:35 AM 57.2 °F - 26.6 °F 31% 30.01 in 10.0 mi SW 9.2 mph - N/A   Clear
10:55 AM 59.0 °F - 26.6 °F 29% 30.01 in 10.0 mi WSW 16.1 mph 21.9 mph N/A   Clear
11:15 AM 60.8 °F - 21.2 °F 22% 30.00 in 10.0 mi SW 18.4 mph 23.0 mph N/A   Clear
11:35 AM 60.8 °F - 19.4 °F 20% 29.99 in 10.0 mi WSW 20.7 mph 29.9 mph N/A   Clear
11:55 AM 60.8 °F - 17.6 °F 19% 29.98 in 10.0 mi WSW 20.7 mph 28.8 mph N/A   Clear
12:15 PM 60.8 °F - 15.8 °F 17% 29.97 in 10.0 mi WSW 27.6 mph 32.2 mph N/A   Clear
12:35 PM 62.6 °F - 15.8 °F 16% 29.97 in 10.0 mi WSW 21.9 mph 32.2 mph N/A   Clear
12:55 PM 62.6 °F - 15.8 °F 16% 29.97 in 10.0 mi WSW 23.0 mph 31.1 mph N/A   Clear
1:15 PM 60.8 °F - 14.0 °F 16% 29.97 in 10.0 mi West 18.4 mph 35.7 mph N/A   Clear
1:35 PM 62.6 °F - 15.8 °F 16% 29.96 in 10.0 mi West 25.3 mph 34.5 mph N/A   Clear
1:55 PM 62.6 °F - 14.0 °F 15% 29.95 in 10.0 mi West 24.2 mph 33.4 mph N/A   Clear
2:15 PM 62.6 °F - 14.0 °F 15% 29.95 in 10.0 mi WSW 24.2 mph 33.4 mph N/A   Clear
2:35 PM 62.6 °F - 14.0 °F 15% 29.95 in 10.0 mi West 17.3 mph 32.2 mph N/A   Clear
2:55 PM 62.6 °F - 14.0 °F 15% 29.94 in 10.0 mi West 20.7 mph 29.9 mph N/A   Clear
3:15 PM 62.6 °F - 14.0 °F 15% 29.94 in 10.0 mi West 17.3 mph 27.6 mph N/A   Clear
3:35 PM 62.6 °F - 14.0 °F 15% 29.95 in 10.0 mi West 18.4 mph 27.6 mph N/A   Clear
3:55 PM 62.6 °F - 12.2 °F 14% 29.95 in 10.0 mi West 16.1 mph 29.9 mph N/A   Clear
4:15 PM 62.6 °F - 15.8 °F 16% 29.95 in 10.0 mi West 16.1 mph 24.2 mph N/A   Clear
4:35 PM 62.6 °F - 15.8 °F 16% 29.95 in 10.0 mi West 17.3 mph 24.2 mph N/A   Clear
4:55 PM 60.8 °F - 14.0 °F 16% 29.95 in 10.0 mi WSW 12.7 mph 24.2 mph N/A   Clear
5:15 PM 60.8 °F - 15.8 °F 17% 29.95 in 10.0 mi West 9.2 mph 23.0 mph N/A   Clear
5:35 PM 60.8 °F - 14.0 °F 16% 29.96 in 10.0 mi WSW 10.4 mph - N/A   Clear
5:55 PM 60.8 °F - 15.8 °F 17% 29.96 in 10.0 mi SW 6.9 mph - N/A   Clear
6:15 PM 57.2 °F - 12.2 °F 17% 29.96 in 10.0 mi SW 5.8 mph - N/A   Clear
6:35 PM 57.2 °F - 12.2 °F 17% 29.97 in 10.0 mi Calm Calm - N/A   Clear
6:55 PM 53.6 °F - 14.0 °F 21% 29.98 in 10.0 mi South 5.8 mph - N/A   Clear
7:15 PM 55.4 °F - 19.4 °F 25% 29.99 in 10.0 mi South 10.4 mph - N/A   Clear
7:35 PM 55.4 °F - 21.2 °F 26% 29.99 in 10.0 mi SSW 10.4 mph - N/A   Clear
7:55 PM 55.4 °F - 19.4 °F 25% 29.99 in 10.0 mi SSW 10.4 mph 21.9 mph N/A   Clear
8:15 PM 55.4 °F - 19.4 °F 25% 29.99 in 10.0 mi South 12.7 mph - N/A   Clear
8:35 PM 55.4 °F - 19.4 °F 25% 30.00 in 10.0 mi SW 5.8 mph - N/A   Clear
8:55 PM 51.8 °F - 17.6 °F 26% 30.01 in 10.0 mi Calm Calm - N/A   Clear
9:15 PM 51.8 °F - 17.6 °F 26% 30.01 in 10.0 mi North 3.5 mph - N/A   Clear
9:35 PM 48.2 °F - 17.6 °F 30% 30.01 in 10.0 mi NE 4.6 mph - N/A   Clear
9:55 PM 46.4 °F 42.4 °F 17.6 °F 32% 30.01 in 10.0 mi North 8.1 mph - N/A   Clear
10:15 PM 44.6 °F 40.2 °F 17.6 °F 34% 30.01 in 10.0 mi North 8.1 mph - N/A   Clear
10:35 PM 44.6 °F 39.7 °F 17.6 °F 34% 30.01 in 10.0 mi NNW 9.2 mph - N/A   Clear
10:55 PM 42.8 °F 37.0 °F 17.6 °F 36% 30.01 in 10.0 mi NNW 10.4 mph - N/A   Clear
11:15 PM 42.8 °F - 17.6 °F 36% 30.01 in 10.0 mi Calm Calm - N/A   Clear
11:35 PM 42.8 °F 40.1 °F 17.6 °F 36% 30.01 in 10.0 mi NNW 4.6 mph - N/A   Clear